User: anonymous   Login
Location: Unspecified
(0.0000°N, 0.0000°E)
Time: 09:09:51
(UTC+01:00)
Language:

ISS - Orbit

View from above orbital plane
View from above orbital plane
View from above satellite
View from above satellite

Ground track
Ground track

The orbit data is extracted from the following two-line orbital elements,

1 25544U 98067A   16045.08461514  .00015278  00000-0  23253-3 0  9996
2 25544  51.6435 316.9119 0006811 112.2536  34.0677 15.54705799985676
Epoch (UTC): 14 February 2016 02:01:50
Eccentricity: 0.0006811
inclination: 51.6435°
perigee height: 398 km
apogee height: 407 km
right ascension of ascending node: 316.9119°
argument of perigee: 112.2536°
revolutions per day: 15.54705799
mean anomaly at epoch: 34.0677°
orbit number at epoch: 98567

The dashed part of the orbit path shows where the satellite is in the earth's shadow,  

DLR